Time,TemperatureF,DewpointF,PressureIn,WindDirection,WindDirectionDegrees,WindSpeedMPH,WindSpeedGustMPH,Humidity,HourlyPrecipIn,Conditions,Clouds,dailyrainin,SoftwareType,DateUTC
2013-03-18 00:03:00,78.0,-99.9,30.06,East,86,14.0,21.0,-999,-99.99,,,-99.99,,2013-03-18 04:03:00,
2013-03-18 00:13:00,78.0,-99.9,30.06,East,88,16.0,21.0,-999,-99.99,,,-99.99,,2013-03-18 04:13:00,
2013-03-18 00:23:00,78.0,-99.9,30.05,East,94,19.0,23.0,-999,-99.99,,,-99.99,,2013-03-18 04:23:00,
2013-03-18 00:33:00,78.0,-99.9,30.06,East,96,13.0,19.0,-999,-99.99,,,-99.99,,2013-03-18 04:33:00,
2013-03-18 00:42:00,78.0,-99.9,30.05,East,88,14.0,19.0,-999,-99.99,,,-99.99,,2013-03-18 04:42:00,
2013-03-18 00:53:00,78.0,-99.9,30.05,East,92,16.0,21.0,-999,-99.99,,,-99.99,,2013-03-18 04:53:00,
2013-03-18 01:03:00,77.0,-99.9,30.04,East,95,17.0,22.0,-999,-99.99,,,-99.99,,2013-03-18 05:03:00,
2013-03-18 01:12:00,76.0,-99.9,30.04,ESE,102,17.0,20.0,-999,-99.99,,,-99.99,,2013-03-18 05:12:00,
2013-03-18 01:23:00,77.0,-99.9,30.04,East,99,16.0,21.0,-999,-99.99,,,-99.99,,2013-03-18 05:23:00,
2013-03-18 01:32:00,78.0,-99.9,30.03,East,93,16.0,19.0,-999,-99.99,,,-99.99,,2013-03-18 05:32:00,
2013-03-18 01:43:00,78.0,-99.9,30.03,East,95,15.0,18.0,-999,-99.99,,,-99.99,,2013-03-18 05:43:00,
2013-03-18 01:52:00,77.0,-99.9,30.03,East,95,15.0,18.0,-999,-99.99,,,-99.99,,2013-03-18 05:52:00,
2013-03-18 02:02:00,77.0,-99.9,30.02,East,90,15.0,18.0,-999,-99.99,,,-99.99,,2013-03-18 06:02:00,
2013-03-18 02:12:00,78.0,-99.9,30.01,East,93,17.0,20.0,-999,-99.99,,,-99.99,,2013-03-18 06:12:00,
2013-03-18 02:22:00,77.0,-99.9,30.01,East,97,14.0,17.0,-999,-99.99,,,-99.99,,2013-03-18 06:22:00,
2013-03-18 02:32:00,77.0,-99.9,30.01,East,90,15.0,18.0,-999,-99.99,,,-99.99,,2013-03-18 06:32:00,
2013-03-18 02:42:00,77.0,-99.9,30.00,East,85,14.0,18.0,-999,-99.99,,,-99.99,,2013-03-18 06:42:00,
2013-03-18 02:53:00,78.0,-99.9,30.00,East,91,15.0,19.0,-999,-99.99,,,-99.99,,2013-03-18 06:53:00,
2013-03-18 03:02:00,77.0,-99.9,30.00,East,88,16.0,19.0,-999,-99.99,,,-99.99,,2013-03-18 07:02:00,
2013-03-18 03:13:00,77.0,-99.9,30.00,East,84,10.0,15.0,-999,-99.99,,,-99.99,,2013-03-18 07:13:00,
2013-03-18 03:23:00,77.0,-99.9,29.99,ENE,73,9.0,13.0,-999,-99.99,,,-99.99,,2013-03-18 07:23:00,
2013-03-18 03:33:00,77.0,-99.9,30.00,ENE,78,10.0,15.0,-999,-99.99,,,-99.99,,2013-03-18 07:33:00,
2013-03-18 03:43:00,77.0,-99.9,30.00,East,87,11.0,15.0,-999,-99.99,,,-99.99,,2013-03-18 07:43:00,
2013-03-18 03:53:00,77.0,-99.9,30.00,East,80,9.0,15.0,-999,-99.99,,,-99.99,,2013-03-18 07:53:00,
2013-03-18 04:02:00,77.0,-99.9,30.00,East,92,13.0,17.0,-999,-99.99,,,-99.99,,2013-03-18 08:02:00,
2013-03-18 04:12:00,77.0,-99.9,30.00,East,88,16.0,19.0,-999,-99.99,,,-99.99,,2013-03-18 08:12:00,
2013-03-18 04:22:00,77.0,-99.9,30.00,East,90,17.0,19.0,-999,-99.99,,,-99.99,,2013-03-18 08:22:00,
2013-03-18 04:32:00,78.0,-99.9,30.00,East,89,16.0,20.0,-999,-99.99,,,-99.99,,2013-03-18 08:32:00,
2013-03-18 04:43:00,78.0,-99.9,30.00,East,88,16.0,21.0,-999,-99.99,,,-99.99,,2013-03-18 08:43:00,
2013-03-18 04:53:00,78.0,-99.9,30.00,East,88,14.0,20.0,-999,-99.99,,,-99.99,,2013-03-18 08:53:00,
2013-03-18 05:02:00,77.0,-99.9,30.00,East,90,16.0,18.0,-999,-99.99,,,-99.99,,2013-03-18 09:02:00,
2013-03-18 05:13:00,77.0,-99.9,30.00,East,95,11.0,19.0,-999,-99.99,,,-99.99,,2013-03-18 09:13:00,
2013-03-18 05:22:00,77.0,-99.9,30.00,East,91,17.0,21.0,-999,-99.99,,,-99.99,,2013-03-18 09:22:00,
2013-03-18 05:33:00,77.0,-99.9,30.00,East,98,16.0,20.0,-999,-99.99,,,-99.99,,2013-03-18 09:33:00,
2013-03-18 05:43:00,77.0,-99.9,30.01,East,90,15.0,20.0,-999,-99.99,,,-99.99,,2013-03-18 09:43:00,
2013-03-18 05:53:00,77.0,-99.9,30.01,East,83,13.0,17.0,-999,-99.99,,,-99.99,,2013-03-18 09:53:00,
2013-03-18 06:04:00,77.0,-99.9,30.02,East,86,12.0,17.0,-999,-99.99,,,-99.99,,2013-03-18 10:04:00,
2013-03-18 06:13:00,77.0,-99.9,30.01,East,90,17.0,20.0,-999,-99.99,,,-99.99,,2013-03-18 10:13:00,
2013-03-18 06:23:00,77.0,-99.9,30.02,East,85,11.0,18.0,-999,-99.99,,,-99.99,,2013-03-18 10:23:00,
2013-03-18 06:33:00,77.0,-99.9,30.02,ENE,74,11.0,18.0,-999,-99.99,,,-99.99,,2013-03-18 10:33:00,
2013-03-18 06:42:00,77.0,-99.9,30.02,ENE,72,10.0,16.0,-999,-99.99,,,-99.99,,2013-03-18 10:42:00,
2013-03-18 06:53:00,76.0,-99.9,30.03,East,85,11.0,25.0,-999,-99.99,,,-99.99,,2013-03-18 10:53:00,
2013-03-18 07:03:00,76.0,-99.9,30.03,East,90,14.0,17.0,-999,-99.99,,,-99.99,,2013-03-18 11:03:00,
2013-03-18 07:13:00,77.0,-99.9,30.03,East,91,15.0,18.0,-999,-99.99,,,-99.99,,2013-03-18 11:13:00,
2013-03-18 07:22:00,76.0,-99.9,30.04,East,90,16.0,19.0,-999,-99.99,,,-99.99,,2013-03-18 11:22:00,
2013-03-18 07:32:00,76.0,-99.9,30.04,East,80,10.0,15.0,-999,-99.99,,,-99.99,,2013-03-18 11:32:00,
2013-03-18 07:43:00,75.0,-99.9,30.05,ENE,76,11.0,19.0,-999,-99.99,,,-99.99,,2013-03-18 11:43:00,
2013-03-18 07:53:00,75.0,-99.9,30.05,ENE,68,9.0,15.0,-999,-99.99,,,-99.99,,2013-03-18 11:53:00,
2013-03-18 08:03:00,75.0,-99.9,30.05,ENE,65,8.0,13.0,-999,-99.99,,,-99.99,,2013-03-18 12:03:00,
2013-03-18 08:13:00,75.0,-99.9,30.06,East,82,8.0,10.0,-999,-99.99,,,-99.99,,2013-03-18 12:13:00,
2013-03-18 08:22:00,76.0,-99.9,30.06,East,97,11.0,14.0,-999,-99.99,,,-99.99,,2013-03-18 12:22:00,
2013-03-18 08:33:00,76.0,-99.9,30.06,East,101,13.0,16.0,-999,-99.99,,,-99.99,,2013-03-18 12:33:00,
2013-03-18 08:43:00,78.0,-99.9,30.06,East,101,15.0,17.0,-999,-99.99,,,-99.99,,2013-03-18 12:43:00,
2013-03-18 08:52:00,77.0,-99.9,30.07,East,94,13.0,15.0,-999,-99.99,,,-99.99,,2013-03-18 12:52:00,
2013-03-18 09:03:00,77.0,-99.9,30.07,East,98,10.0,17.0,-999,-99.99,,,-99.99,,2013-03-18 13:03:00,
2013-03-18 09:12:00,77.0,-99.9,30.07,ESE,105,15.0,19.0,-999,-99.99,,,-99.99,,2013-03-18 13:12:00,
2013-03-18 09:23:00,77.0,-99.9,30.08,SE,127,13.0,15.0,-999,-99.99,,,-99.99,,2013-03-18 13:23:00,
2013-03-18 09:33:00,77.0,-99.9,30.08,SE,124,9.0,12.0,-999,-99.99,,,-99.99,,2013-03-18 13:33:00,
2013-03-18 09:43:00,78.0,-99.9,30.08,East,94,10.0,14.0,-999,-99.99,,,-99.99,,2013-03-18 13:43:00,
2013-03-18 09:52:00,78.0,-99.9,30.08,East,91,11.0,16.0,-999,-99.99,,,-99.99,,2013-03-18 13:52:00,
2013-03-18 10:03:00,78.0,-99.9,30.09,ENE,77,8.0,14.0,-999,-99.99,,,-99.99,,2013-03-18 14:03:00,
2013-03-18 10:12:00,78.0,-99.9,30.09,ENE,76,11.0,15.0,-999,-99.99,,,-99.99,,2013-03-18 14:12:00,
2013-03-18 10:22:00,79.0,-99.9,30.09,East,90,17.0,24.0,-999,-99.99,,,-99.99,,2013-03-18 14:22:00,
2013-03-18 10:32:00,79.0,-99.9,30.09,East,92,17.0,21.0,-999,-99.99,,,-99.99,,2013-03-18 14:32:00,
2013-03-18 10:42:00,79.0,-99.9,30.09,East,94,19.0,23.0,-999,-99.99,,,-99.99,,2013-03-18 14:42:00,
2013-03-18 10:52:00,79.0,-99.9,30.08,East,90,16.0,19.0,-999,-99.99,,,-99.99,,2013-03-18 14:52:00,
2013-03-18 11:02:00,79.0,-99.9,30.08,East,90,16.0,21.0,-999,-99.99,,,-99.99,,2013-03-18 15:02:00,
2013-03-18 11:12:00,79.0,-99.9,30.08,East,90,19.0,22.0,-999,-99.99,,,-99.99,,2013-03-18 15:12:00,
2013-03-18 11:23:00,79.0,-99.9,30.08,East,88,21.0,27.0,-999,-99.99,,,-99.99,,2013-03-18 15:23:00,
2013-03-18 11:33:00,79.0,-99.9,30.07,East,88,19.0,25.0,-999,-99.99,,,-99.99,,2013-03-18 15:33:00,
2013-03-18 11:43:00,79.0,-99.9,30.07,East,89,20.0,24.0,-999,-99.99,,,-99.99,,2013-03-18 15:43:00,
2013-03-18 11:52:00,79.0,-99.9,30.07,East,87,20.0,26.0,-999,-99.99,,,-99.99,,2013-03-18 15:52:00,
2013-03-18 12:03:00,79.0,-99.9,30.07,East,89,21.0,27.0,-999,-99.99,,,-99.99,,2013-03-18 16:03:00,
2013-03-18 12:12:00,79.0,-99.9,30.06,East,89,21.0,26.0,-999,-99.99,,,-99.99,,2013-03-18 16:12:00,
2013-03-18 12:23:00,79.0,-99.9,30.06,East,88,20.0,27.0,-999,-99.99,,,-99.99,,2013-03-18 16:23:00,
2013-03-18 12:33:00,79.0,-99.9,30.06,East,89,22.0,25.0,-999,-99.99,,,-99.99,,2013-03-18 16:33:00,
2013-03-18 12:42:00,79.0,-99.9,30.06,East,87,16.0,27.0,-999,-99.99,,,-99.99,,2013-03-18 16:42:00,
2013-03-18 12:53:00,79.0,-99.9,30.06,East,86,15.0,20.0,-999,-99.99,,,-99.99,,2013-03-18 16:53:00,
2013-03-18 13:03:00,79.0,-99.9,30.06,ENE,76,14.0,22.0,-999,-99.99,,,-99.99,,2013-03-18 17:03:00,
2013-03-18 13:12:00,80.0,-99.9,30.05,East,81,15.0,20.0,-999,-99.99,,,-99.99,,2013-03-18 17:12:00,
2013-03-18 13:22:00,80.0,-99.9,30.04,ENE,71,15.0,23.0,-999,-99.99,,,-99.99,,2013-03-18 17:22:00,
2013-03-18 13:33:00,80.0,-99.9,30.04,ENE,71,15.0,22.0,-999,-99.99,,,-99.99,,2013-03-18 17:33:00,
2013-03-18 13:43:00,79.0,-99.9,30.04,East,83,15.0,23.0,-999,-99.99,,,-99.99,,2013-03-18 17:43:00,
2013-03-18 13:52:00,79.0,-99.9,30.03,ENE,78,16.0,22.0,-999,-99.99,,,-99.99,,2013-03-18 17:52:00,
2013-03-18 14:02:00,80.0,-99.9,30.03,ENE,78,14.0,22.0,-999,-99.99,,,-99.99,,2013-03-18 18:02:00,
2013-03-18 14:13:00,80.0,-99.9,30.03,East,80,14.0,23.0,-999,-99.99,,,-99.99,,2013-03-18 18:13:00,
2013-03-18 14:22:00,79.0,-99.9,30.03,East,83,17.0,25.0,-999,-99.99,,,-99.99,,2013-03-18 18:22:00,
2013-03-18 14:32:00,79.0,-99.9,30.03,East,82,15.0,23.0,-999,-99.99,,,-99.99,,2013-03-18 18:32:00,
2013-03-18 14:42:00,79.0,-99.9,30.02,East,87,17.0,26.0,-999,-99.99,,,-99.99,,2013-03-18 18:42:00,
2013-03-18 14:52:00,79.0,-99.9,30.01,East,90,19.0,23.0,-999,-99.99,,,-99.99,,2013-03-18 18:52:00,
2013-03-18 15:03:00,79.0,-99.9,30.01,ENE,65,13.0,22.0,-999,-99.99,,,-99.99,,2013-03-18 19:03:00,
2013-03-18 15:12:00,80.0,-99.9,30.01,ENE,61,13.0,20.0,-999,-99.99,,,-99.99,,2013-03-18 19:12:00,
2013-03-18 15:22:00,80.0,-99.9,30.01,ENE,74,10.0,14.0,-999,-99.99,,,-99.99,,2013-03-18 19:22:00,
2013-03-18 15:33:00,79.0,-99.9,30.01,East,85,15.0,21.0,-999,-99.99,,,-99.99,,2013-03-18 19:33:00,
2013-03-18 15:42:00,79.0,-99.9,30.01,East,90,14.0,21.0,-999,-99.99,,,-99.99,,2013-03-18 19:42:00,
2013-03-18 15:52:00,79.0,-99.9,30.01,East,87,13.0,19.0,-999,-99.99,,,-99.99,,2013-03-18 19:52:00,
2013-03-18 16:03:00,79.0,-99.9,30.01,ENE,78,11.0,18.0,-999,-99.99,,,-99.99,,2013-03-18 20:03:00,
2013-03-18 16:12:00,80.0,-99.9,30.00,ENE,73,10.0,20.0,-999,-99.99,,,-99.99,,2013-03-18 20:12:00,
2013-03-18 16:23:00,79.0,-99.9,30.00,ENE,74,10.0,21.0,-999,-99.99,,,-99.99,,2013-03-18 20:23:00,
2013-03-18 16:33:00,79.0,-99.9,30.00,ENE,65,11.0,16.0,-999,-99.99,,,-99.99,,2013-03-18 20:33:00,
2013-03-18 16:43:00,79.0,-99.9,30.00,ENE,66,10.0,17.0,-999,-99.99,,,-99.99,,2013-03-18 20:43:00,
2013-03-18 16:53:00,79.0,-99.9,30.00,ENE,73,12.0,20.0,-999,-99.99,,,-99.99,,2013-03-18 20:53:00,
2013-03-18 17:02:00,79.0,-99.9,30.00,ENE,75,11.0,21.0,-999,-99.99,,,-99.99,,2013-03-18 21:02:00,
2013-03-18 17:12:00,79.0,-99.9,30.00,ENE,71,11.0,17.0,-999,-99.99,,,-99.99,,2013-03-18 21:12:00,
2013-03-18 17:23:00,78.0,-99.9,30.00,ENE,77,13.0,22.0,-999,-99.99,,,-99.99,,2013-03-18 21:23:00,
2013-03-18 17:33:00,79.0,-99.9,30.00,ENE,72,9.0,23.0,-999,-99.99,,,-99.99,,2013-03-18 21:33:00,
2013-03-18 17:43:00,78.0,-99.9,30.00,East,79,14.0,21.0,-999,-99.99,,,-99.99,,2013-03-18 21:43:00,
2013-03-18 17:53:00,78.0,-99.9,30.00,East,82,11.0,24.0,-999,-99.99,,,-99.99,,2013-03-18 21:53:00,
2013-03-18 18:03:00,78.0,-99.9,30.00,East,89,18.0,23.0,-999,-99.99,,,-99.99,,2013-03-18 22:03:00,
2013-03-18 18:13:00,78.0,-99.9,30.00,East,81,12.0,17.0,-999,-99.99,,,-99.99,,2013-03-18 22:13:00,
2013-03-18 18:23:00,78.0,-99.9,30.00,ENE,76,8.0,17.0,-999,-99.99,,,-99.99,,2013-03-18 22:23:00,
2013-03-18 18:33:00,77.0,-99.9,30.00,East,89,17.0,21.0,-999,-99.99,,,-99.99,,2013-03-18 22:33:00,
2013-03-18 18:43:00,78.0,-99.9,30.00,East,85,15.0,23.0,-999,-99.99,,,-99.99,,2013-03-18 22:43:00,
2013-03-18 18:53:00,77.0,-99.9,30.00,East,93,22.0,26.0,-999,-99.99,,,-99.99,,2013-03-18 22:53:00,
2013-03-18 19:03:00,76.0,-99.9,30.01,East,90,21.0,25.0,-999,-99.99,,,-99.99,,2013-03-18 23:03:00,
2013-03-18 19:13:00,76.0,-99.9,30.01,ENE,70,11.0,16.0,-999,-99.99,,,-99.99,,2013-03-18 23:13:00,
2013-03-18 19:23:00,77.0,-99.9,30.01,East,89,18.0,22.0,-999,-99.99,,,-99.99,,2013-03-18 23:23:00,
2013-03-18 19:33:00,77.0,-99.9,30.01,East,83,16.0,21.0,-999,-99.99,,,-99.99,,2013-03-18 23:33:00,
2013-03-18 19:43:00,77.0,-99.9,30.01,ENE,78,11.0,25.0,-999,-99.99,,,-99.99,,2013-03-18 23:43:00,
2013-03-18 19:53:00,77.0,-99.9,30.01,East,90,18.0,23.0,-999,-99.99,,,-99.99,,2013-03-18 23:53:00,
2013-03-18 20:03:00,77.0,-99.9,30.02,East,80,11.0,23.0,-999,-99.99,,,-99.99,,2013-03-19 00:03:00,
2013-03-18 20:12:00,77.0,-99.9,30.02,East,80,11.0,19.0,-999,-99.99,,,-99.99,,2013-03-19 00:12:00,
2013-03-18 20:23:00,76.0,-99.9,30.03,ENE,74,12.0,20.0,-999,-99.99,,,-99.99,,2013-03-19 00:23:00,
2013-03-18 20:33:00,77.0,-99.9,30.03,East,83,14.0,19.0,-999,-99.99,,,-99.99,,2013-03-19 00:33:00,
2013-03-18 20:43:00,77.0,-99.9,30.03,East,84,13.0,21.0,-999,-99.99,,,-99.99,,2013-03-19 00:43:00,
2013-03-18 20:52:00,77.0,-99.9,30.03,East,82,11.0,21.0,-999,-99.99,,,-99.99,,2013-03-19 00:52:00,
2013-03-18 21:02:00,77.0,-99.9,30.04,ENE,75,10.0,21.0,-999,-99.99,,,-99.99,,2013-03-19 01:02:00,
2013-03-18 21:12:00,77.0,-99.9,30.04,East,83,13.0,21.0,-999,-99.99,,,-99.99,,2013-03-19 01:12:00,
2013-03-18 21:23:00,77.0,-99.9,30.04,East,81,12.0,19.0,-999,-99.99,,,-99.99,,2013-03-19 01:23:00,
2013-03-18 21:33:00,77.0,-99.9,30.04,ENE,61,11.0,17.0,-999,-99.99,,,-99.99,,2013-03-19 01:33:00,
2013-03-18 21:43:00,77.0,-99.9,30.04,ENE,68,8.0,17.0,-999,-99.99,,,-99.99,,2013-03-19 01:43:00,
2013-03-18 21:53:00,77.0,-99.9,30.04,East,89,17.0,22.0,-999,-99.99,,,-99.99,,2013-03-19 01:53:00,
2013-03-18 22:03:00,77.0,-99.9,30.04,East,89,17.0,22.0,-999,-99.99,,,-99.99,,2013-03-19 02:03:00,
2013-03-18 22:13:00,74.0,-99.9,30.05,SSE,157,15.0,20.0,-999,-99.99,,,-99.99,,2013-03-19 02:13:00,
2013-03-18 22:23:00,73.0,-99.9,30.05,SSE,148,12.0,16.0,-999,-99.99,,,-99.99,,2013-03-19 02:23:00,
2013-03-18 22:33:00,73.0,-99.9,30.05,SE,143,10.0,14.0,-999,-99.99,,,-99.99,,2013-03-19 02:33:00,
2013-03-18 22:43:00,73.0,-99.9,30.05,SSE,149,9.0,12.0,-999,-99.99,,,-99.99,,2013-03-19 02:43:00,
2013-03-18 22:53:00,73.0,-99.9,30.05,SE,144,7.0,10.0,-999,-99.99,,,-99.99,,2013-03-19 02:53:00,
2013-03-18 23:02:00,73.0,-99.9,30.05,SSE,166,7.0,8.0,-999,-99.99,,,-99.99,,2013-03-19 03:02:00,
2013-03-18 23:13:00,73.0,-99.9,30.05,SSE,147,8.0,12.0,-999,-99.99,,,-99.99,,2013-03-19 03:13:00,
2013-03-18 23:23:00,73.0,-99.9,30.05,ESE,116,5.0,6.0,-999,-99.99,,,-99.99,,2013-03-19 03:23:00,
2013-03-18 23:33:00,74.0,-99.9,30.05,SSE,166,9.0,11.0,-999,-99.99,,,-99.99,,2013-03-19 03:33:00,
2013-03-18 23:43:00,74.0,-99.9,30.04,SSE,159,8.0,12.0,-999,-99.99,,,-99.99,,2013-03-19 03:43:00,
2013-03-18 23:54:00,74.0,-99.9,30.04,SSE,152,6.0,8.0,-999,-99.99,,,-99.99,,2013-03-19 03:54:00,